Showing default

KINEIS-2E, 62931

Orbit data source: Space-Track

KINEIS-2E, 62931 is a French payload satellite in SSO that was launched on Sat, 08 Feb 2025 UTC via an ELECTRON launch vehicle from the Rocket Lab Launch Complex (RLLC). Payload-class satellites include a variety of spacecraft equipped with specific instruments for various scientific and technological missions. These include communications satellites like Starlink; space stations such as the ISS; scientific satellites like the Hubble; Earth observation satellites from companies like Planet Labs, Umbra, and HawkEye 360; GPS; miniature CubeSats for education and research; and military/defense satellites.

Loading next visibility...
Identifier
62931, 2025-028D
Orbit
SSO
Country
Flag of FRFR
Related business
Manufacturer
KINEIS
Mission
Operational Commercial Communications
Bus & Motor
CUBESAT 16U, Unknown motor
Mass
28 kg wet, 28 kg dry
Launch date (UTC)
2025-02-08 (7 months ago)
Launch vehicle
ELECTRON
Launch site
Rocket Lab Launch Complex (RLLC)
Object type
Payload
Rocket body
Debris
Shape & HBR
Box + 2 Pan + 1 Ant, 0.8 m
Radar Cross Section
0.229 m², Medium (>0.1 m² and < 1m²)

Expand to show TLE details & history
Last TLE update: 10 hours ago

TLE from 10 hours ago
0 KINEIS-2E
1 62931U 25028D   25258.08858121  .00001193  00000-0  18117-3 0  9998
2 62931  97.9357 310.1825 0001277  77.3740 282.7612 14.75870896 32185
Epoch: 2025-09-15T02:07Z
TLE epoch observation values (Epoch: 2025-09-15T02:07:33.416Z)
Latitude
-0.00006°
Longitude
-76.00498°
Altitude
645.205 km
Speed
7.535 km/s
True Right ascension
20h 40m 43s
True Declination
0° 00' 00"
Sunlit
Object was in full shadow at epoch
Visualization orbit readout
Latitude
Unknown
Longitude
Unknown
Altitude
Unknown
Speed
Unknown
Apparent Right ascension
Unknown
Apparent Declination
Unknown
Sunlit
N/A
Visualization observer readout
Local Sidereal Time
04:51:37
Azimuth
Unknown
Elevation
Unknown
Doppler factor
Unknown
Orbital elements
Apogee altitude
640.332 km
Perigee altitude
638.54 km
Semi-major axis
7,017.573 km
Eccentricity
0.00013
Inclination
97.9357°
RAAN
310.1825°
Arg. of periapsis
77.374°
True anomaly
282.74693°
Mean anomaly
282.7612°
Eccentric anomaly
282.75406°
Mean motion
3.69201 °/min
Orbital period
97.51 mins
BSTAR
0.00018117
Loading maneuver chart data...
Computing Atmospheric mass density...
Loading historical data...
Loading historical data...
Loading historical data...
Loading historical data...
Loading historical data...
Loading historical data...
Loading historical data...

Documentation

Showing up to 5 results
|